TDRS 11

Last updated on Sun Oct 26 2025 00:02:48 GMT+0000 (Coordinated Universal Time)

1 39070U 13004A 25298.47418170 .00000093 00000+0 00000+0 0 9995 2 39070 3.1933 26.5379 0001527 44.3501 319.5522 1.00274546 44345
UTC large
Height (km)
Speed (km/s)
/
Latitude / Longitude
Inclination (degrees)
Orbital Period (minutes)
Azimuth
Elevation
Range (km)
Doppler Factor

Next 0 passes for location: London (51.5072 / 0.1276)

Sorry there are no passes over London.